Tracking 29494 objects as of 7-Sep-2024
HD Live streaming from Space Station
objects crossing your sky now

STARLINK-5117

Track STARLINK-5117 now!
10-day predictions
STARLINK-5117 is classified as:


NORAD ID: 54172
Int'l Code: 2022-141R
Perigee: 545.9 km
Apogee: 547.9 km
Inclination: 53.2 °
Period: 95.4 minutes
Semi major axis: 6917 km
RCS: Unknown
Launch date: October 28, 2022
Source: United States (US)
Launch site: AIR FORCE WESTERN TEST RANGE (AFWTR)
Your satellite tracking list
Your tracking list is empty




NASA's NSSDC Master Catalog

Two Line Element Set (TLE):
1 54172U 22141R   24251.59051408  .00002086  00000-0  14912-3 0  9991
2 54172  53.2155 304.6085 0001412  93.1422 266.9732 15.08838691103117
Source of the keplerian elements: AFSPC